Location: Saint-Restitut
(44.3351°N, 4.7915°E)
Time: 11:56:59
(UTC+00:00)

Cosmos 44 Rocket - Pass Details

Date: 03 February 2023
Orbit: 647 x 741 km, 65.1° (Epoch: 19 March)

Event Time Altitude Azimuth Distance (km) Brightness Sun altitude
Rises 18:03:19 0° 181° (S) 2,947 6.7 -12.9°
Reaches altitude 10° 18:05:53 10° 169° (S) 2,047 5.7 -13.4°
Maximum altitude 18:09:43 26° 113° (ESE) 1,282 4.2 -14.1°
Enters shadow 18:11:06 23° 85° (E) 1,411 4.3 -14.3°
